Regional Weather Roundup
Issued by NWS

Home | Current Version | Previous Version | Graphics & Text | Print | Product List | Glossary On
Versions: 1 2 3 4 5 6 7 8 9 10 11 12 13 14 15 16 17 18 19 20 21 22 23 24 25 26 27 28 29 30 31 32 33 34 35 36 37 38 39 40 41 42 43 44 45 46 47 48 49 50
000
ASUS44 KMEG 242210
RWRTN
TENNESSEE HOURLY STATE WEATHER ROUNDUP
NATIONAL WEATHER SERVICE MEMPHIS TN
400 PM CST TUE JAN 24 2017

TNZ002-004-019-021-049-052-054-088>092-242300-
WEST TENNESSEE

CITY           SKY/WX    TMP DP  RH WIND       PRES   REMARKS
MEMPHIS INTL   MOSUNNY   63  36  36 S10       29.79F
NWS MEMPHIS      N/A     63 N/A N/A MISG        N/A
JACKSON        SUNNY     60  32  34 SE6G17    29.81F
DYERSBURG      SUNNY     55  37  50 S9        29.80F
UNION CITY     SUNNY     55  34  44 SE6       29.80S
PARIS          SUNNY     54  34  47 CALM      29.81F
HUNTINGDON     SUNNY     57  34  41 S10       29.81F
$$

TNZ008-025-027-028-033-062-065-066-242300-
NORTH MIDDLE TENNESSEE

CITY           SKY/WX    TMP DP  RH WIND       PRES   REMARKS
NASHVILLE      SUNNY     55  32  41 S5        29.87S
PORTLAND       SUNNY     52  36  54 S6        29.87S
CLARKSVILLE    SUNNY     54  34  46 SE8       29.84F
SMYRNA         SUNNY     55  37  50 SE5       29.89S
GALLATIN       SUNNY     52  36  54 CALM      29.91S
CROSSVILLE     CLEAR     46  36  68 VRB7      29.87R
$$

TNZ061-075-076-078-094-096-097-242300-
SOUTH MIDDLE TENNESSEE

CITY           SKY/WX    TMP DP  RH WIND       PRES   REMARKS
TULLAHOMA      SUNNY     54  32  43 W3        29.88S
WINCHESTER     SUNNY     52  36  54 CALM      29.87S
MCMINNVILLE    SUNNY     52  36  54 W3        29.84
COLUMBIA       SUNNY     57  36  44 SW8       29.84S
SHELBYVILLE    SUNNY     55  37  50 CALM      29.88F
$$

TNZ017-018-042-046-047-242300-
NORTHEAST TENNESSEE

CITY           SKY/WX    TMP DP  RH WIND       PRES   REMARKS
TRI CITIES     CLOUDY    46  38  73 W10       29.85R
ELIZABETHTON   DRIZZLE   46  39  76 W6        29.85R
$$

TNZ012-013-036-069-073-074-242300-
CENTRAL EAST TENNESSEE

CITY           SKY/WX    TMP DP  RH WIND       PRES   REMARKS
KNOXVILLE      PTCLDY    52  37  56 SW5       29.86R
OAK RIDGE      CLEAR     52  36  54 VRB5      29.88R
GATLINBURG     CLEAR     52  37  58 W6        29.85R
MORRISTOWN     CLEAR     50  37  62 NW8       29.85R
JACKSBORO      CLEAR     48  37  66 CALM      29.89R
$$

TNZ083-085-099-242300-
SOUTHEAST TENNESSEE

CITY           SKY/WX    TMP DP  RH WIND       PRES   REMARKS
CHATTANOOGA    SUNNY     56  36  47 NE5       29.87S
$$

SKY/WX REPORTED AS FAIR MEANS FEW OR NO CLOUDS BELOW
12 THOUSAND FEET.





USA.gov is the U.S. government's official web portal to all federal, state and local government web resources and services.